Weather in Mospanove

Ukraine / Kharkiv Region     49°38′21″N   36°44′41″E
В апреле 2022 года жителям России запретили посещать сайт meteo.paraplan.net по решению Генеральной прокуратуры. Аудитория сайта уменьшилась в 10 раз. Владельцы сайта не видят смысла в поддержке погодного сервера в таких условиях. Сайт будет закрыт в октябре.
temp.,
°C
wind,
m/s
gust,
m/s
humid.,
%
clouds,
%
prec.,
mm/h
press.,
hPa
HPBL,
m
4 october, tue
tue400:00+11ssw6147011 0.0 1009483
03:00+11s6147491 0.0 1009730
06:00+10s511799 0.1 1010329
09:00+12ssw6107416 0.1 1011783
12:00+15sw7105498 0.0 10121698
15:00+14sw7105594 0.1 10131657
18:00+12w4861100 0.0 1015496
21:00+10wsw51072100 0.0 1017615
5 october, wed
wed500:00+8sw497854 0.0 1018273
03:00+8sw4107770 0.0 1018315
06:00+7sw41086100 0.0 1019314
09:00+11wsw59725 0.0 1020733
12:00+13w795966 0.4 10211435
15:00+14wnw79478 0.5 10211858
18:00+11nw486679 0.0 1023213
21:00+11nw3668100 0.0 1024482
6 october, thu
thu600:00+10wsw257679 0.0 1024245
03:00+9wsw3785100 0.0 1025197
06:00+10wsw3781100 0.0 1024281
09:00+12wsw4773100 0.0 1025372
12:00+16w5757100 0.0 10241162
15:00+17w575038 0.0 10231566
18:00+14wsw336339 0.0 102423
21:00+12w35745 0.0 102484
7 october, fri
fri700:00+10wsw22775 0.0 102529
03:00+10sw33780 0.0 102438
06:00+9wsw238052 0.0 102431
09:00+13wnw346957 0.0 1025239
12:00+17nw455843 0.0 1025808
15:00+19n45578 0.0 10241104
18:00+15nne33765 0.0 102535
21:00+13nne378427 0.0 1026117
8 october, sat
sat800:00+11ne378628 0.0 1027133
03:00+10ne369025 0.0 1026113
06:00+9ene369318 0.0 1026112
09:00+13e467715 0.0 1026309
12:00+18ese456016 0.0 10241048
15:00+19ese455192 0.0 10221314
18:00+15ese3466100 0.0 102245
21:00+13ese3372100 0.0 102247